Voltar ao catálogo

STARLINK-3389

AtivoComunicaçõesVLEO
NORAD 51124·PAYLOAD·🇺🇸 United States

Lançado Jan 19, 2022 de Cape Canaveral Space Force Station

Loading…

Próximas Passagens (próximas 24 horas)

TLE

AtualizadoSource: CelesTrak SupGP

Época: Sep 14, 2026, 21:15 UTC

1 51124C 22005W   26257.88590278 -.00023699  00000+0 -69884-3 0  2576
2 51124  53.1587 163.8396 0001287  91.4745 175.2261 15.34463137    10

Acompanhe STARLINK-3389 em tempo real com AllMySat

Download on the App Store